Location: *
(47.6569°N, 7.4256°E)
Time: 00:37:34
(UTC+00:00)

Cosmos 292 Rocket - Pass Details

Date: 14 December 2019
Orbit: 673 x 694 km, 74.0° (Epoch: 20 January)

Event Time Altitude Azimuth Distance (km) Brightness Sun altitude
Rises 16:49:07 0° 334° (NNW) 3,084 7.2 -11.2°
Reaches altitude 10° 16:51:27 10° 331° (NNW) 2,162 6.4 -11.6°
Maximum altitude 16:56:15 59° 253° (WSW) 801 4.5 -12.4°
Drops below altitude 10° 17:00:59 10° 174° (S) 2,141 6.5 -13.1°
Sets 17:03:18 0° 170° (S) 3,051 7.3 -13.5°
